Year,Month,Day,Hour,Minute,Value (Times are PST for temperature in C)
2007,07,03,00,00,17.10
2007,07,03,00,01,17.10
2007,07,03,00,02,17.10
2007,07,03,00,03,17.10
2007,07,03,00,04,17.10
2007,07,03,00,05,17.10
2007,07,03,00,06,17.10
2007,07,03,00,07,17.10
2007,07,03,00,08,17.10
2007,07,03,00,09,17.10
2007,07,03,00,10,17.10
2007,07,03,00,11,17.10
2007,07,03,00,12,17.10
2007,07,03,01,02,17.10
2007,07,03,01,03,17.10
2007,07,03,01,04,17.10
2007,07,03,01,05,17.10
2007,07,03,01,06,17.10
2007,07,03,01,07,17.10
2007,07,03,01,08,17.10
2007,07,03,01,09,17.10
2007,07,03,01,10,17.10
2007,07,03,01,11,17.10
2007,07,03,01,12,17.10
2007,07,03,01,13,17.10
2007,07,03,01,14,17.10
2007,07,03,01,15,17.10
2007,07,03,01,16,17.10
2007,07,03,01,17,17.10
2007,07,03,01,18,17.10
2007,07,03,01,19,17.10
2007,07,03,01,20,17.10
2007,07,03,01,21,17.10
2007,07,03,01,22,17.10
2007,07,03,01,23,17.10
2007,07,03,01,24,17.00
2007,07,03,01,25,17.00
2007,07,03,01,26,17.00
2007,07,03,01,27,17.00
2007,07,03,01,28,16.90
2007,07,03,01,29,16.90
2007,07,03,01,30,16.90
2007,07,03,01,31,16.90
2007,07,03,01,32,16.90
2007,07,03,01,33,16.90
2007,07,03,01,34,16.90
2007,07,03,01,35,16.90
2007,07,03,01,36,16.90
2007,07,03,01,37,16.90
2007,07,03,01,38,16.90
2007,07,03,01,39,16.90
2007,07,03,01,40,16.80
2007,07,03,01,41,16.80
2007,07,03,01,42,16.80
2007,07,03,01,43,16.80
2007,07,03,01,44,16.80
2007,07,03,01,45,16.80
2007,07,03,01,46,16.80
2007,07,03,01,47,16.80
2007,07,03,01,48,16.70
2007,07,03,01,49,16.70
2007,07,03,01,50,16.70
2007,07,03,01,51,16.70
2007,07,03,01,52,16.70
2007,07,03,01,53,16.70
2007,07,03,01,54,16.70
2007,07,03,01,55,16.70
2007,07,03,01,56,16.70
2007,07,03,01,57,16.80
2007,07,03,01,58,16.80
2007,07,03,01,59,16.80
2007,07,03,02,00,16.80
2007,07,03,02,01,16.80
2007,07,03,02,02,16.80
2007,07,03,02,03,16.80
2007,07,03,02,04,16.80
2007,07,03,02,05,16.80
2007,07,03,02,06,16.90
2007,07,03,02,07,16.90
2007,07,03,02,08,16.90
2007,07,03,02,09,16.90
2007,07,03,02,10,16.90
2007,07,03,02,11,16.90
2007,07,03,02,12,16.90
2007,07,03,02,13,16.90
2007,07,03,02,14,16.90
2007,07,03,02,15,16.90
2007,07,03,02,16,16.90
2007,07,03,02,17,16.90
2007,07,03,02,18,16.90
2007,07,03,02,19,16.90
2007,07,03,02,20,16.90
2007,07,03,02,21,16.90
2007,07,03,02,22,16.90
2007,07,03,02,23,16.80
2007,07,03,02,24,16.80
2007,07,03,02,25,16.80
2007,07,03,02,26,16.80
2007,07,03,02,27,16.80
2007,07,03,02,28,16.80
2007,07,03,02,29,16.70
2007,07,03,02,30,16.70
2007,07,03,02,31,16.70
2007,07,03,02,32,16.70
2007,07,03,02,33,16.70
2007,07,03,02,34,16.70
2007,07,03,02,35,16.60
2007,07,03,02,36,16.60
2007,07,03,02,37,16.60
2007,07,03,02,38,16.60
2007,07,03,02,39,16.60
2007,07,03,02,40,16.60
2007,07,03,02,41,16.60
2007,07,03,02,42,16.60
2007,07,03,02,43,16.60
2007,07,03,02,44,16.60
2007,07,03,02,45,16.60
2007,07,03,02,46,16.60
2007,07,03,02,47,16.60
2007,07,03,02,48,16.60
2007,07,03,02,49,16.60
2007,07,03,02,50,16.60
2007,07,03,02,51,16.60
2007,07,03,02,52,16.60
2007,07,03,02,53,16.60
2007,07,03,02,54,16.60
2007,07,03,02,55,16.60
2007,07,03,02,56,16.60
2007,07,03,02,57,16.60
2007,07,03,02,58,16.60
2007,07,03,02,59,16.60
2007,07,03,03,00,16.60
2007,07,03,03,01,16.60
2007,07,03,03,02,16.60
2007,07,03,03,03,16.50
2007,07,03,03,04,16.50
2007,07,03,03,05,16.40
2007,07,03,03,06,16.40
2007,07,03,03,07,16.40
2007,07,03,03,08,16.40
2007,07,03,03,09,16.30
2007,07,03,03,10,16.30
2007,07,03,03,11,16.30
2007,07,03,03,12,16.30
2007,07,03,03,13,16.30
2007,07,03,03,14,16.30
2007,07,03,03,15,16.20
2007,07,03,03,16,16.20
2007,07,03,03,17,16.20
2007,07,03,03,18,16.20
2007,07,03,03,19,16.20
2007,07,03,03,20,16.20
2007,07,03,03,21,16.10
2007,07,03,03,22,16.10
2007,07,03,03,23,16.10
2007,07,03,03,24,16.10
2007,07,03,03,25,16.10
2007,07,03,03,26,16.10
2007,07,03,03,27,16.10
2007,07,03,03,28,16.10
2007,07,03,03,29,16.10
2007,07,03,03,30,16.10
2007,07,03,03,31,16.10
2007,07,03,03,32,16.10
2007,07,03,03,33,16.10
2007,07,03,03,34,16.10
2007,07,03,03,35,16.10
2007,07,03,03,36,16.10
2007,07,03,03,37,16.10
2007,07,03,03,38,16.10
2007,07,03,03,39,16.10
2007,07,03,03,40,16.10
2007,07,03,03,41,16.10
2007,07,03,03,42,16.10
2007,07,03,03,43,16.00
2007,07,03,03,44,16.00
2007,07,03,03,45,16.00
2007,07,03,03,46,16.00
2007,07,03,03,47,16.00
2007,07,03,03,48,16.00
2007,07,03,03,49,16.00
2007,07,03,03,50,16.00
2007,07,03,03,51,15.90
2007,07,03,03,52,15.90
2007,07,03,03,53,15.90
2007,07,03,03,54,15.90
2007,07,03,03,55,15.90
2007,07,03,03,56,15.90
2007,07,03,03,57,15.80
2007,07,03,03,58,15.80
2007,07,03,03,59,15.80
2007,07,03,04,00,15.80
2007,07,03,04,01,15.80
2007,07,03,04,02,15.80
2007,07,03,04,03,15.80
2007,07,03,04,04,15.80
2007,07,03,04,05,15.80
2007,07,03,04,06,15.80
2007,07,03,04,07,15.80
2007,07,03,04,08,15.80
2007,07,03,04,09,15.80
2007,07,03,04,10,15.80
2007,07,03,04,11,15.80
2007,07,03,04,12,15.80
2007,07,03,04,13,15.80
2007,07,03,04,14,15.80
2007,07,03,04,15,15.80
2007,07,03,04,16,15.80
2007,07,03,04,17,15.80
2007,07,03,04,18,15.80
2007,07,03,04,19,15.80
2007,07,03,04,20,15.70
2007,07,03,04,21,15.70
2007,07,03,04,22,15.70
2007,07,03,04,23,15.70
2007,07,03,04,24,15.70
2007,07,03,04,25,15.70
2007,07,03,04,26,15.70
2007,07,03,04,27,15.70
2007,07,03,04,28,15.70
2007,07,03,04,29,15.70
2007,07,03,04,30,15.60
2007,07,03,04,31,15.60
2007,07,03,04,32,15.60
2007,07,03,04,33,15.60
2007,07,03,04,34,15.60
2007,07,03,04,35,15.60
2007,07,03,04,36,15.60
2007,07,03,04,37,15.60
2007,07,03,04,38,15.50
2007,07,03,04,39,15.40
2007,07,03,04,40,15.30
2007,07,03,04,41,15.30
2007,07,03,04,42,15.20
2007,07,03,04,43,15.20
2007,07,03,04,44,15.10
2007,07,03,04,45,15.00
2007,07,03,04,46,15.00
2007,07,03,04,47,15.00
2007,07,03,04,48,15.00
2007,07,03,04,49,15.00
2007,07,03,04,50,15.00
2007,07,03,04,51,15.00
2007,07,03,04,52,15.00
2007,07,03,04,53,15.00
2007,07,03,04,54,15.00
2007,07,03,04,55,14.90
2007,07,03,04,56,14.90
2007,07,03,04,57,14.90
2007,07,03,04,58,14.80
2007,07,03,04,59,14.80
2007,07,03,05,00,14.80
2007,07,03,05,01,14.80
2007,07,03,05,02,14.80
2007,07,03,05,03,14.80
2007,07,03,05,04,14.80
2007,07,03,05,05,14.80
2007,07,03,05,06,14.80
2007,07,03,05,07,14.80
2007,07,03,05,08,14.80
2007,07,03,05,09,14.80
2007,07,03,05,10,14.80
2007,07,03,05,11,14.80
2007,07,03,05,12,14.80
2007,07,03,05,13,14.80
2007,07,03,05,14,14.80
2007,07,03,05,15,14.80
2007,07,03,05,16,14.80
2007,07,03,05,17,14.80
2007,07,03,05,18,14.80
2007,07,03,05,19,14.80
2007,07,03,05,20,14.80
2007,07,03,05,21,14.80
2007,07,03,05,22,14.90
2007,07,03,05,23,14.90
2007,07,03,05,24,14.90
2007,07,03,05,25,14.90
2007,07,03,05,26,14.90
2007,07,03,05,27,14.90
2007,07,03,05,28,14.90
2007,07,03,05,29,14.90
2007,07,03,05,30,14.90
2007,07,03,05,31,14.90
2007,07,03,05,32,14.90
2007,07,03,05,33,15.00
2007,07,03,05,34,14.90
2007,07,03,05,35,14.90
2007,07,03,05,36,14.90
2007,07,03,05,37,14.90
2007,07,03,05,38,14.90
2007,07,03,05,39,14.90
2007,07,03,05,40,14.90
2007,07,03,05,41,14.90
2007,07,03,05,42,14.90
2007,07,03,05,43,14.90
2007,07,03,05,44,14.90
2007,07,03,05,45,14.90
2007,07,03,05,46,14.80
2007,07,03,05,47,14.90
2007,07,03,05,48,14.80
2007,07,03,05,49,14.80
2007,07,03,05,50,14.90
2007,07,03,05,51,14.80
2007,07,03,05,52,14.80
2007,07,03,05,53,14.80
2007,07,03,05,54,14.80
2007,07,03,05,55,14.80
2007,07,03,05,56,14.80
2007,07,03,05,57,14.80
2007,07,03,05,58,14.80
2007,07,03,05,59,14.80
2007,07,03,06,00,14.90
2007,07,03,06,01,14.90
2007,07,03,06,02,14.90
2007,07,03,06,03,14.90
2007,07,03,06,04,14.90
2007,07,03,06,05,14.90
2007,07,03,06,06,14.90
2007,07,03,06,07,14.90
2007,07,03,06,08,14.90
2007,07,03,06,09,14.90
2007,07,03,06,10,15.00
2007,07,03,06,11,15.00
2007,07,03,06,12,15.00
2007,07,03,06,13,15.00
2007,07,03,06,14,15.00
2007,07,03,06,15,15.00
2007,07,03,06,16,15.00
2007,07,03,06,17,15.00
2007,07,03,06,18,15.00
2007,07,03,06,19,15.00
2007,07,03,06,20,15.00
2007,07,03,06,21,15.00
2007,07,03,06,22,15.00
2007,07,03,06,23,15.00
2007,07,03,06,24,15.00
2007,07,03,06,25,15.00
2007,07,03,06,26,15.00
2007,07,03,06,27,15.00
2007,07,03,06,28,15.00
2007,07,03,06,29,15.00
2007,07,03,06,30,15.00
2007,07,03,06,31,15.00
2007,07,03,06,32,15.00
2007,07,03,06,33,15.00
2007,07,03,06,34,15.00
2007,07,03,06,35,15.00
2007,07,03,06,36,15.10
2007,07,03,06,37,15.10
2007,07,03,06,38,15.10
2007,07,03,06,39,15.20
2007,07,03,06,40,15.20
2007,07,03,06,41,15.20
2007,07,03,06,42,15.20
2007,07,03,06,43,15.20
2007,07,03,06,44,15.30
2007,07,03,06,45,15.30
2007,07,03,06,46,15.30
2007,07,03,06,47,15.30
2007,07,03,06,48,15.30
2007,07,03,06,49,15.30
2007,07,03,06,50,15.30
2007,07,03,06,51,15.30
2007,07,03,06,52,15.30
2007,07,03,06,53,15.40
2007,07,03,06,54,15.40
2007,07,03,06,55,15.40
2007,07,03,06,56,15.40
2007,07,03,06,57,15.40
2007,07,03,06,58,15.40
2007,07,03,06,59,15.40
2007,07,03,07,00,15.40
2007,07,03,07,01,15.50
2007,07,03,07,02,15.50
2007,07,03,07,03,15.50
2007,07,03,07,04,15.50
2007,07,03,07,05,15.50
2007,07,03,07,06,15.60
2007,07,03,07,07,15.60
2007,07,03,07,08,15.60
2007,07,03,07,09,15.60
2007,07,03,07,10,15.60
2007,07,03,07,11,15.60
2007,07,03,07,12,15.60
2007,07,03,07,13,15.60
2007,07,03,07,14,15.60
2007,07,03,07,15,15.60
2007,07,03,07,16,15.60
2007,07,03,07,17,15.60
2007,07,03,07,18,15.60
2007,07,03,07,19,15.60
2007,07,03,07,20,15.60
2007,07,03,07,21,15.60
2007,07,03,07,22,15.70
2007,07,03,07,23,15.70
2007,07,03,07,24,15.70
2007,07,03,07,25,15.70
2007,07,03,07,26,15.70
2007,07,03,07,27,15.70
2007,07,03,07,28,15.70
2007,07,03,07,29,15.80
2007,07,03,07,30,15.80
2007,07,03,07,31,15.80
2007,07,03,07,32,15.80
2007,07,03,07,33,15.80
2007,07,03,07,34,15.80
2007,07,03,07,35,15.90
2007,07,03,07,36,15.90
2007,07,03,07,37,15.90
2007,07,03,07,38,15.90
2007,07,03,07,39,15.90
2007,07,03,07,40,15.90
2007,07,03,07,41,16.00
2007,07,03,07,42,16.00
2007,07,03,07,43,16.10
2007,07,03,07,44,16.10
2007,07,03,07,45,16.10
2007,07,03,07,46,16.10
2007,07,03,07,47,16.10
2007,07,03,07,48,16.10
2007,07,03,07,49,16.20
2007,07,03,07,50,16.20
2007,07,03,07,51,16.20
2007,07,03,07,52,16.20
2007,07,03,07,53,16.20
2007,07,03,07,54,16.20
2007,07,03,07,55,16.30
2007,07,03,07,56,16.30
2007,07,03,07,57,16.30
2007,07,03,07,58,16.30
2007,07,03,07,59,16.30
2007,07,03,08,00,16.40
2007,07,03,08,01,16.40
2007,07,03,08,02,16.40
2007,07,03,08,03,16.40
2007,07,03,08,04,16.50
2007,07,03,08,05,16.50
2007,07,03,08,06,16.50
2007,07,03,08,07,16.60
2007,07,03,08,08,16.60
2007,07,03,08,09,16.60
2007,07,03,08,10,16.70
2007,07,03,08,11,16.70
2007,07,03,08,12,16.80
2007,07,03,08,13,16.80
2007,07,03,08,14,16.80
2007,07,03,08,15,16.80
2007,07,03,08,16,16.90
2007,07,03,08,17,16.90
2007,07,03,08,18,16.90
2007,07,03,08,19,16.90
2007,07,03,08,20,16.90
2007,07,03,08,21,17.00
2007,07,03,08,22,17.00
2007,07,03,08,23,17.10
2007,07,03,08,24,17.10
2007,07,03,08,25,17.10
2007,07,03,08,26,17.10
2007,07,03,08,27,17.10
2007,07,03,08,28,17.20
2007,07,03,08,29,17.20
2007,07,03,08,30,17.20
2007,07,03,08,31,17.30
2007,07,03,08,32,17.30
2007,07,03,08,33,17.30
2007,07,03,08,34,17.30
2007,07,03,08,35,17.30
2007,07,03,08,36,17.30
2007,07,03,08,37,17.40
2007,07,03,08,38,17.40
2007,07,03,08,39,17.30
2007,07,03,08,40,17.30
2007,07,03,08,41,17.30
2007,07,03,08,42,17.30
2007,07,03,08,43,17.30
2007,07,03,08,44,17.30
2007,07,03,08,45,17.30
2007,07,03,08,46,17.20
2007,07,03,08,47,17.20
2007,07,03,08,48,17.20
2007,07,03,08,49,17.20
2007,07,03,08,50,17.20
2007,07,03,08,51,17.20
2007,07,03,08,52,17.20
2007,07,03,08,53,17.20
2007,07,03,08,54,17.20
2007,07,03,08,55,17.20
2007,07,03,08,56,17.20
2007,07,03,08,57,17.20
2007,07,03,08,58,17.20
2007,07,03,08,59,17.20
2007,07,03,09,00,17.20
2007,07,03,09,01,17.20
2007,07,03,09,02,17.20
2007,07,03,09,03,17.20
2007,07,03,09,04,17.20
2007,07,03,09,05,17.20
2007,07,03,09,06,17.20
2007,07,03,09,07,17.20
2007,07,03,09,08,17.20
2007,07,03,09,09,17.20
2007,07,03,09,10,17.20
2007,07,03,09,11,17.20
2007,07,03,09,12,17.20
2007,07,03,09,13,17.20
2007,07,03,09,14,17.30
2007,07,03,09,15,17.30
2007,07,03,09,16,17.30
2007,07,03,09,17,17.30
2007,07,03,09,18,17.30
2007,07,03,09,19,17.30
2007,07,03,09,20,17.30
2007,07,03,09,21,17.40
2007,07,03,09,22,17.40
2007,07,03,09,23,17.40
2007,07,03,09,24,17.40
2007,07,03,09,25,17.40
2007,07,03,09,26,17.40
2007,07,03,09,27,17.40
2007,07,03,09,28,17.50
2007,07,03,09,29,17.50
2007,07,03,09,30,17.50
2007,07,03,09,31,17.50
2007,07,03,09,32,17.50
2007,07,03,09,33,17.60
2007,07,03,09,34,17.60
2007,07,03,09,35,17.60
2007,07,03,09,36,17.60
2007,07,03,09,37,17.60
2007,07,03,09,38,17.60
2007,07,03,09,39,17.60
2007,07,03,09,40,17.50
2007,07,03,09,41,17.50
2007,07,03,09,42,17.40
2007,07,03,09,43,17.40
2007,07,03,09,44,17.30
2007,07,03,09,45,17.20
2007,07,03,09,46,17.20
2007,07,03,09,47,17.10
2007,07,03,09,48,17.10
2007,07,03,09,49,17.00
2007,07,03,09,50,17.00
2007,07,03,09,51,16.90
2007,07,03,09,52,16.90
2007,07,03,09,53,16.90
2007,07,03,09,54,16.90
2007,07,03,09,55,16.90
2007,07,03,09,56,16.90
2007,07,03,09,57,16.80
2007,07,03,09,58,16.80
2007,07,03,09,59,16.80
2007,07,03,10,00,16.80
2007,07,03,10,01,16.80
2007,07,03,10,02,16.80
2007,07,03,10,03,16.80
2007,07,03,10,04,16.80
2007,07,03,10,05,16.80
2007,07,03,10,06,16.80
2007,07,03,10,07,16.80
2007,07,03,10,08,16.80
2007,07,03,10,09,16.80
2007,07,03,10,10,16.80
2007,07,03,10,11,16.80
2007,07,03,10,12,16.80
2007,07,03,10,13,16.90
2007,07,03,10,14,16.90
2007,07,03,10,15,16.90
2007,07,03,10,16,16.90
2007,07,03,10,17,17.00
2007,07,03,10,18,17.00
2007,07,03,10,19,17.10
2007,07,03,10,20,17.10
2007,07,03,10,21,17.20
2007,07,03,10,22,17.20
2007,07,03,10,23,17.20
2007,07,03,10,24,17.30
2007,07,03,10,25,17.30
2007,07,03,10,26,17.40
2007,07,03,10,27,17.40
2007,07,03,10,28,17.40
2007,07,03,10,29,17.40
2007,07,03,10,30,17.50
2007,07,03,10,31,17.50
2007,07,03,10,32,17.60
2007,07,03,10,33,17.60
2007,07,03,10,34,17.60
2007,07,03,10,35,17.70
2007,07,03,10,36,17.70
2007,07,03,10,37,17.80
2007,07,03,10,38,17.80
2007,07,03,10,39,17.90
2007,07,03,10,40,17.90
2007,07,03,10,41,17.90
2007,07,03,10,42,17.90
2007,07,03,10,43,17.90
2007,07,03,10,44,17.90
2007,07,03,10,45,17.90
2007,07,03,10,46,17.90
2007,07,03,10,47,17.80
2007,07,03,10,48,17.80
2007,07,03,10,49,17.80
2007,07,03,10,50,17.80
2007,07,03,10,51,17.70
2007,07,03,10,52,17.70
2007,07,03,10,53,17.70
2007,07,03,10,54,17.70
2007,07,03,10,55,17.70
2007,07,03,10,56,17.80
2007,07,03,10,57,17.80
2007,07,03,10,58,17.70
2007,07,03,10,59,17.80
2007,07,03,11,00,17.80
2007,07,03,11,01,17.80
2007,07,03,11,02,17.80
2007,07,03,11,03,17.80
2007,07,03,11,04,17.80
2007,07,03,11,05,17.80
2007,07,03,11,06,17.80
2007,07,03,11,07,17.70
2007,07,03,11,08,17.70
2007,07,03,11,09,17.70
2007,07,03,11,10,17.70
2007,07,03,11,11,17.80
2007,07,03,11,12,17.80
2007,07,03,11,13,17.80
2007,07,03,11,14,17.80
2007,07,03,11,15,17.90
2007,07,03,11,16,18.00
2007,07,03,11,17,18.00
2007,07,03,11,18,18.00
2007,07,03,11,19,18.10
2007,07,03,11,20,18.20
2007,07,03,11,21,18.20
2007,07,03,11,22,18.20
2007,07,03,11,23,18.30
2007,07,03,11,24,18.30
2007,07,03,11,25,18.30
2007,07,03,11,26,18.40
2007,07,03,11,27,18.40
2007,07,03,11,28,18.40
2007,07,03,11,29,18.40
2007,07,03,11,30,18.40
2007,07,03,11,31,18.30
2007,07,03,11,32,18.30
2007,07,03,11,33,18.30
2007,07,03,11,34,18.30
2007,07,03,11,35,18.30
2007,07,03,11,36,18.40
2007,07,03,11,37,18.60
2007,07,03,11,38,18.70
2007,07,03,11,39,18.70
2007,07,03,11,40,18.70
2007,07,03,11,41,18.70
2007,07,03,11,42,18.70
2007,07,03,11,43,18.70
2007,07,03,11,44,18.70
2007,07,03,11,45,18.70
2007,07,03,11,46,18.70
2007,07,03,11,47,18.70
2007,07,03,11,48,18.70
2007,07,03,11,49,18.70
2007,07,03,11,50,18.70
2007,07,03,11,51,18.60
2007,07,03,11,52,18.50
2007,07,03,11,53,18.40
2007,07,03,11,54,18.40
2007,07,03,11,55,18.50
2007,07,03,11,56,18.50
2007,07,03,11,57,18.60
2007,07,03,11,58,18.70
2007,07,03,11,59,18.80
2007,07,03,12,00,18.90
2007,07,03,12,01,18.90
2007,07,03,12,02,18.90
2007,07,03,12,03,18.80
2007,07,03,12,04,18.80
2007,07,03,12,05,18.90
2007,07,03,12,06,18.80
2007,07,03,12,07,18.70
2007,07,03,12,08,18.60
2007,07,03,12,09,18.60
2007,07,03,12,10,18.70
2007,07,03,12,11,18.60
2007,07,03,12,12,18.60
2007,07,03,12,13,18.60
2007,07,03,12,14,18.60
2007,07,03,12,15,18.60
2007,07,03,12,16,18.60
2007,07,03,12,17,18.60
2007,07,03,12,18,18.60
2007,07,03,12,19,18.60
2007,07,03,12,20,18.60
2007,07,03,12,21,18.60
2007,07,03,12,22,18.50
2007,07,03,12,23,18.50
2007,07,03,12,24,18.50
2007,07,03,12,25,18.40
2007,07,03,12,26,18.30
2007,07,03,12,27,18.30
2007,07,03,12,28,18.30
2007,07,03,12,29,18.40
2007,07,03,12,30,18.50
2007,07,03,12,31,18.60
2007,07,03,12,32,18.60
2007,07,03,12,33,18.70
2007,07,03,12,34,18.80
2007,07,03,12,35,18.90
2007,07,03,12,36,19.10
2007,07,03,12,37,19.20
2007,07,03,12,38,19.30
2007,07,03,12,39,19.30
2007,07,03,12,40,19.40
2007,07,03,12,41,19.50
2007,07,03,12,42,19.60
2007,07,03,12,43,19.70
2007,07,03,12,44,19.90
2007,07,03,12,45,20.00
2007,07,03,12,46,20.20
2007,07,03,12,47,20.30
2007,07,03,12,48,20.30
2007,07,03,12,49,20.20
2007,07,03,12,50,20.20
2007,07,03,12,51,20.20
2007,07,03,12,52,20.10
2007,07,03,12,53,20.00
2007,07,03,12,54,19.90
2007,07,03,12,55,19.80
2007,07,03,12,56,19.80
2007,07,03,12,57,19.70
2007,07,03,12,58,19.60
2007,07,03,12,59,19.60
2007,07,03,13,00,19.60
2007,07,03,13,01,19.50
2007,07,03,13,02,19.50
2007,07,03,13,03,19.60
2007,07,03,13,04,19.60
2007,07,03,13,05,19.60
2007,07,03,13,06,19.60
2007,07,03,13,07,19.50
2007,07,03,13,08,19.50
2007,07,03,13,09,19.60
2007,07,03,13,10,19.60
2007,07,03,13,11,19.80
2007,07,03,13,12,19.80
2007,07,03,13,13,19.80
2007,07,03,13,14,19.80
2007,07,03,13,15,19.80
2007,07,03,13,16,19.90
2007,07,03,13,17,19.90
2007,07,03,13,18,20.00
2007,07,03,13,19,20.10
2007,07,03,13,20,20.10
2007,07,03,13,21,20.10
2007,07,03,13,22,20.00
2007,07,03,13,23,19.90
2007,07,03,13,24,19.90
2007,07,03,13,25,20.00
2007,07,03,13,26,19.90
2007,07,03,13,27,19.90
2007,07,03,13,28,19.80
2007,07,03,13,29,19.70
2007,07,03,13,30,19.70
2007,07,03,13,31,19.80
2007,07,03,13,32,19.80
2007,07,03,13,33,19.70
2007,07,03,13,34,19.70
2007,07,03,13,35,19.80
2007,07,03,13,36,19.80
2007,07,03,13,37,19.80
2007,07,03,13,38,19.80
2007,07,03,13,39,19.90
2007,07,03,13,40,20.10
2007,07,03,13,41,20.10
2007,07,03,13,42,20.20
2007,07,03,13,43,20.10
2007,07,03,13,44,20.10
2007,07,03,13,45,20.10
2007,07,03,13,46,20.10
2007,07,03,13,47,20.10
2007,07,03,13,48,20.10
2007,07,03,13,49,20.00
2007,07,03,13,50,19.90
2007,07,03,13,51,19.90
2007,07,03,13,52,19.90
2007,07,03,13,53,20.00
2007,07,03,13,54,20.10
2007,07,03,13,55,20.10
2007,07,03,13,56,20.20
2007,07,03,13,57,20.30
2007,07,03,13,58,20.30
2007,07,03,13,59,20.30
2007,07,03,14,00,20.30
2007,07,03,14,01,20.30
2007,07,03,14,02,20.40
2007,07,03,14,03,20.40
2007,07,03,14,04,20.40
2007,07,03,14,05,20.40
2007,07,03,14,06,20.50
2007,07,03,14,07,20.60
2007,07,03,14,08,20.70
2007,07,03,14,09,20.80
2007,07,03,14,10,20.90
2007,07,03,14,11,20.90
2007,07,03,14,12,21.00
2007,07,03,14,13,21.00
2007,07,03,14,14,20.90
2007,07,03,14,15,20.80
2007,07,03,14,16,20.80
2007,07,03,14,17,20.70
2007,07,03,14,18,20.70
2007,07,03,14,19,20.70
2007,07,03,14,20,20.60
2007,07,03,14,21,20.60
2007,07,03,14,22,20.70
2007,07,03,14,23,20.70
2007,07,03,14,24,20.80
2007,07,03,14,25,20.80
2007,07,03,14,26,20.90
2007,07,03,14,27,20.90
2007,07,03,14,28,20.90
2007,07,03,14,29,20.90
2007,07,03,14,30,20.90
2007,07,03,14,31,20.80
2007,07,03,14,32,20.70
2007,07,03,14,33,20.70
2007,07,03,14,34,20.60
2007,07,03,14,35,20.60
2007,07,03,14,36,20.60
2007,07,03,14,37,20.70
2007,07,03,14,38,20.70
2007,07,03,14,39,20.80
2007,07,03,14,40,20.70
2007,07,03,14,41,20.60
2007,07,03,14,42,20.60
2007,07,03,14,43,20.60
2007,07,03,14,44,20.60
2007,07,03,14,45,20.60
2007,07,03,14,46,20.50
2007,07,03,14,47,20.50
2007,07,03,14,48,20.40
2007,07,03,14,49,20.40
2007,07,03,14,50,20.40
2007,07,03,14,51,20.40
2007,07,03,14,52,20.40
2007,07,03,14,53,20.40
2007,07,03,14,54,20.40
2007,07,03,14,55,20.50
2007,07,03,14,56,20.50
2007,07,03,14,57,20.50
2007,07,03,14,58,20.40
2007,07,03,14,59,20.30
2007,07,03,15,00,20.20
2007,07,03,15,01,20.10
2007,07,03,15,02,20.10
2007,07,03,15,03,20.20
2007,07,03,15,04,20.30
2007,07,03,15,05,20.30
2007,07,03,15,06,20.30
2007,07,03,15,07,20.30
2007,07,03,15,08,20.20
2007,07,03,15,09,20.10
2007,07,03,15,10,20.10
2007,07,03,15,11,20.10
2007,07,03,15,12,20.10
2007,07,03,15,13,20.10
2007,07,03,15,14,20.20
2007,07,03,15,15,20.30
2007,07,03,15,16,20.30
2007,07,03,15,17,20.40
2007,07,03,15,18,20.30
2007,07,03,15,19,20.30
2007,07,03,15,20,20.30
2007,07,03,15,21,20.30
2007,07,03,15,22,20.30
2007,07,03,15,23,20.40
2007,07,03,15,24,20.50
2007,07,03,15,25,20.60
2007,07,03,15,26,20.70
2007,07,03,15,27,20.70
2007,07,03,15,28,20.70
2007,07,03,15,29,20.70
2007,07,03,15,30,20.70
2007,07,03,15,31,20.70
2007,07,03,15,32,20.60
2007,07,03,15,33,20.60
2007,07,03,15,34,20.60
2007,07,03,15,35,20.60
2007,07,03,15,36,20.60
2007,07,03,15,37,20.50
2007,07,03,15,38,20.40
2007,07,03,15,39,20.30
2007,07,03,15,40,20.20
2007,07,03,15,41,20.10
2007,07,03,15,42,20.00
2007,07,03,15,43,20.00
2007,07,03,15,44,20.10
2007,07,03,15,45,20.10
2007,07,03,15,46,20.20
2007,07,03,15,47,20.30
2007,07,03,15,48,20.30
2007,07,03,15,49,20.40
2007,07,03,15,50,20.40
2007,07,03,15,51,20.40
2007,07,03,15,52,20.40
2007,07,03,15,53,20.40
2007,07,03,15,54,20.40
2007,07,03,15,55,20.40
2007,07,03,15,56,20.40
2007,07,03,15,57,20.40
2007,07,03,15,58,20.40
2007,07,03,15,59,20.40
2007,07,03,16,00,20.30
2007,07,03,16,01,20.20
2007,07,03,16,02,20.10
2007,07,03,16,03,20.00
2007,07,03,16,04,19.90
2007,07,03,16,05,19.80
2007,07,03,16,06,19.80
2007,07,03,16,07,19.80
2007,07,03,16,08,19.80
2007,07,03,16,09,19.80
2007,07,03,16,10,19.80
2007,07,03,16,11,19.70
2007,07,03,16,12,19.70
2007,07,03,16,13,19.80
2007,07,03,16,14,19.80
2007,07,03,16,15,19.80
2007,07,03,16,16,19.90
2007,07,03,16,17,20.00
2007,07,03,16,18,20.10
2007,07,03,16,19,20.10
2007,07,03,16,20,20.20
2007,07,03,16,21,20.20
2007,07,03,16,22,20.30
2007,07,03,16,23,20.30
2007,07,03,16,24,20.30
2007,07,03,16,25,20.30
2007,07,03,16,26,20.30
2007,07,03,16,27,20.30
2007,07,03,16,28,20.40
2007,07,03,16,29,20.40
2007,07,03,16,30,20.30
2007,07,03,16,31,20.20
2007,07,03,16,32,20.10
2007,07,03,16,33,20.20
2007,07,03,16,34,20.20
2007,07,03,16,35,20.00
2007,07,03,16,36,19.80
2007,07,03,16,37,19.60
2007,07,03,16,38,19.40
2007,07,03,16,39,19.30
2007,07,03,16,40,19.20
2007,07,03,16,41,19.10
2007,07,03,16,42,19.10
2007,07,03,16,43,19.00
2007,07,03,16,44,18.90
2007,07,03,16,45,18.80
2007,07,03,16,46,18.80
2007,07,03,16,47,18.80
2007,07,03,16,48,18.80
2007,07,03,16,49,18.80
2007,07,03,16,50,18.90
2007,07,03,16,51,19.00
2007,07,03,16,52,19.10
2007,07,03,16,53,19.20
2007,07,03,16,54,19.30
2007,07,03,16,55,19.40
2007,07,03,16,56,19.40
2007,07,03,16,57,19.40
2007,07,03,16,58,19.50
2007,07,03,16,59,19.60
2007,07,03,17,00,19.60
2007,07,03,17,01,19.70
2007,07,03,17,02,19.70
2007,07,03,17,03,19.60
2007,07,03,17,04,19.50
2007,07,03,17,05,19.40
2007,07,03,17,06,19.40
2007,07,03,17,07,19.40
2007,07,03,17,08,19.40
2007,07,03,17,09,19.40
2007,07,03,17,10,19.30
2007,07,03,17,11,19.30
2007,07,03,17,12,19.10
2007,07,03,17,13,19.00
2007,07,03,17,14,18.90
2007,07,03,17,15,18.80
2007,07,03,17,16,18.80
2007,07,03,17,17,18.80
2007,07,03,17,18,18.90
2007,07,03,17,19,18.90
2007,07,03,17,20,19.00
2007,07,03,17,21,19.00
2007,07,03,17,22,19.00
2007,07,03,17,23,19.10
2007,07,03,17,24,19.20
2007,07,03,17,25,19.20
2007,07,03,17,26,19.20
2007,07,03,17,27,19.30
2007,07,03,17,28,19.40
2007,07,03,17,29,19.40
2007,07,03,17,30,19.50
2007,07,03,17,31,19.50
2007,07,03,17,32,19.50
2007,07,03,17,33,19.40
2007,07,03,17,34,19.40
2007,07,03,17,35,19.30
2007,07,03,17,36,19.20
2007,07,03,17,37,19.10
2007,07,03,17,38,19.00
2007,07,03,17,39,18.90
2007,07,03,17,40,18.90
2007,07,03,17,41,18.80
2007,07,03,17,42,18.70
2007,07,03,17,43,18.60
2007,07,03,17,44,18.60
2007,07,03,17,45,18.60
2007,07,03,17,46,18.70
2007,07,03,17,47,18.80
2007,07,03,17,48,18.80
2007,07,03,17,49,18.80
2007,07,03,17,50,18.90
2007,07,03,17,51,19.20
2007,07,03,17,52,19.40
2007,07,03,17,53,19.70
2007,07,03,17,54,19.80
2007,07,03,17,55,19.80
2007,07,03,17,56,19.80
2007,07,03,17,57,19.80
2007,07,03,17,58,19.80
2007,07,03,17,59,19.80
2007,07,03,18,00,20.00
2007,07,03,18,01,20.10
2007,07,03,18,02,20.20
2007,07,03,18,03,20.50
2007,07,03,18,04,20.80
2007,07,03,18,05,21.10
2007,07,03,18,06,21.40
2007,07,03,18,07,21.70
2007,07,03,18,08,21.80